• Join FlightAware (Why Join?)
  • Login
  • US Flag GB Flag 
22:42 EDT


 

Airport Tracker/Info


-or-


 

Live Flight TrackerFlight Track Log ✈ EJM685 ✈ 12-May-2013 ✈ KTEB - PANC

Flight Track Log - Related Links

Times and Time Zones

All times are in EDT time to prevent confusion due to time zone crossing. See the EJM685 flight status page for this flight to view local times or setup timezone preferences in your user account.

Time Position Orientation Groundspeed Altitude Reporting Facility
EDT Latitude Longitude Course Direction KTS MPH feet Rate Location/Type
08:26 40.8269 -74.1086 256° West 193 222 1,500  Level New York Center
08:27 40.8147 -74.1736 256° West 200 230 2,800 2,460 Climbing New York Center
08:28 40.8164 -74.2617 271° West 228 262 6,400 3,540 Climbing New York Center
08:29 40.8556 -74.3403 303° West 235 270 10,000 3,120 Climbing New York Center
08:30 40.9306 -74.3444 358° North 239 275 12,700 2,820 Climbing New York Center
08:31 41.0306 -74.3386 North 311 358 15,600 1,740 Climbing New York Center
08:32 41.1181 -74.3406 359° North 335 386 16,200 240 Climbing New York Center
08:33 41.2283 -74.3464 358° North 348 400 16,200  Level New York Center
08:34 41.3219 -74.3514 358° North 364 419 16,200 720 Level New York Center
08:35 41.4222 -74.4008 340° North 350 403 17,700 1,500 Climbing New York Center
08:36 41.4753 -74.5033 305° West 326 375 19,200 1,440 Climbing New York Center
08:38 41.5647 -74.7181 299° West 353 406 22,000 1,680 Climbing Boston Center
08:39 41.6331 -74.8372 308° West 385 443 24,300 2,160 Climbing Boston Center
08:40 41.7286 -74.9436 320° Northwest 408 470 26,400 1,860 Climbing Boston Center
08:41 41.8264 -75.0533 320° Northwest 439 505 28,100 1,740 Climbing Boston Center
08:42 41.9300 -75.1639 322° Northwest 460 529 29,900 1,980 Climbing Boston Center
08:43 42.0314 -75.2800 320° Northwest 472 543 32,100 2,040 Climbing Boston Center
08:44 42.1414 -75.3775 327° Northwest 472 543 34,000 1,740 Climbing Boston Center
08:45 42.2597 -75.4728 329° Northwest 477 549 35,600 1,800 Climbing Boston Center
08:46 42.3700 -75.5653 328° Northwest 483 556 37,700 1,500 Climbing Boston Center
08:47 42.4842 -75.6556 330° Northwest 478 550 38,700 960 Climbing Boston Center
08:48 42.5981 -75.7489 329° Northwest 473 544 39,700 960 Climbing Boston Center
08:49 42.7142 -75.8428 329° Northwest 478 550 40,700 960 Climbing Boston Center
08:50 42.8261 -75.9339 329° Northwest 478 550 41,700 900 Climbing Boston Center
08:51 42.9422 -76.0256 330° Northwest 478 550 42,500 600 Climbing Boston Center
08:52 43.0558 -76.1203 329° Northwest 478 550 43,000 240 Climbing Boston Center
08:53 43.1694 -76.2153 329° Northwest 478 550 43,000  Level Boston Center
08:54 43.2872 -76.3139 329° Northwest 483 556 43,000  Level Boston Center
08:55 43.4003 -76.4156 327° Northwest 483 556 43,000  Level Boston Center
08:56 43.5156 -76.5175 327° Northwest 483 556 43,000  Level Boston Center
08:57 43.6308 -76.6172 328° Northwest 483 556 43,000  Level Boston Center
08:57 43.7000 -76.6500 341° North 490 564 43,000  Level Toronto Center
08:58 43.8333 -76.7667 328° Northwest 490 564 43,000  Level Toronto Center
08:59 43.9333 -76.8833 320° Northwest 500 575 43,000  Level Toronto Center
09:00 44.0500 -76.9667 333° Northwest 500 575 43,000  Level Toronto Center
09:01 44.1500 -77.0833 320° Northwest 500 575 43,000  Level Montreal Center
09:02 44.2833 -77.1833 332° Northwest 500 575 43,000  Level Toronto Center
09:03 44.4000 -77.3000 324° Northwest 490 564 43,000  Level Toronto Center
09:04 44.5167 -77.3833 333° Northwest 490 564 43,000  Level Toronto Center
09:05 44.6333 -77.5000 325° Northwest 490 564 43,000  Level Toronto Center
09:06 44.7167 -77.6167 315° West 480 552 43,000  Level Montreal Center
09:07 44.8500 -77.7000 336° Northwest 480 552 43,000  Level Toronto Center
09:08 44.9667 -77.8167 325° Northwest 480 552 43,000  Level Toronto Center
09:09 45.0667 -77.9167 325° Northwest 490 564 43,000  Level Toronto Center
09:10 45.1833 -78.0167 329° Northwest 500 575 43,000  Level Toronto Center
09:11 45.3000 -78.1333 325° Northwest 490 564 43,000  Level Toronto Center
09:12 45.4000 -78.2333 325° Northwest 490 564 43,000  Level Toronto Center
09:13 45.5167 -78.3500 325° Northwest 490 564 43,000  Level Toronto Center
09:14 45.6500 -78.4667 329° Northwest 500 575 43,000  Level Toronto Center
09:15 45.7667 -78.5833 325° Northwest 500 575 43,000  Level Toronto Center
09:16 45.8667 -78.6667 330° Northwest 500 575 43,000  Level Toronto Center
09:17 45.9833 -78.8000 322° Northwest 490 564 43,000  Level Toronto Center
09:18 46.1000 -78.9167 325° Northwest 490 564 43,000  Level Toronto Center
09:19 46.2167 -79.0333 325° Northwest 500 575 43,000  Level Toronto Center
09:20 46.3167 -79.1167 330° Northwest 500 575 43,000  Level Toronto Center
09:21 46.4333 -79.2500 322° Northwest 490 564 43,000  Level Toronto Center
09:22 46.5500 -79.3667 325° Northwest 490 564 43,000  Level Toronto Center
09:23 46.6667 -79.4667 330° Northwest 500 575 43,000  Level Toronto Center
09:24 46.7667 -79.5833 321° Northwest 490 564 43,000  Level Toronto Center
09:25 46.8833 -79.7000 326° Northwest 490 564 43,000  Level Toronto Center
09:26 47.0000 -79.8000 330° Northwest 490 564 43,000  Level Toronto Center
09:27 47.1000 -79.9333 318° Northwest 500 575 43,000  Level Toronto Center
09:28 47.2167 -80.0500 326° Northwest 500 575 43,000  Level Toronto Center
09:29 47.3333 -80.1667 326° Northwest 500 575 43,000  Level Toronto Center
09:30 47.4500 -80.3000 322° Northwest 500 575 43,000  Level Toronto Center
09:31 47.5667 -80.4000 330° Northwest 500 575 43,000  Level Toronto Center
09:32 47.6667 -80.5167 322° Northwest 500 575 43,000  Level Toronto Center
09:33 47.7833 -80.6500 322° Northwest 500 575 43,000  Level Toronto Center
09:34 47.9000 -80.7500 330° Northwest 490 564 43,000  Level Toronto Center
09:35 48.0167 -80.8833 323° Northwest 490 564 43,000  Level Toronto Center
09:36 48.1167 -81.0000 322° Northwest 500 575 43,000  Level Toronto Center
09:37 48.2167 -81.1000 326° Northwest 490 564 43,000  Level Toronto Center
09:38 48.3333 -81.2333 323° Northwest 490 564 43,000  Level Toronto Center
09:39 48.4500 -81.3667 323° Northwest 490 564 43,000  Level Toronto Center
09:40 48.5500 -81.4667 327° Northwest 490 564 43,000  Level Toronto Center
09:41 48.6667 -81.6000 323° Northwest 490 564 43,000  Level Toronto Center
09:42 48.7667 -81.7333 319° Northwest 490 564 43,000  Level Toronto Center
09:43 48.8833 -81.8333 331° Northwest 490 564 43,000  Level Toronto Center
09:44 49.0000 -81.9667 323° Northwest 490 564 43,000  Level Toronto Center
09:45 49.1000 -82.1000 319° Northwest 490 564 43,000  Level Toronto Center
09:46 49.2000 -82.2000 327° Northwest 480 552 43,000  Level Toronto Center
09:47 49.3167 -82.3333 323° Northwest 480 552 43,000  Level Toronto Center
09:48 49.4167 -82.4667 319° Northwest 490 564 43,000  Level Toronto Center
09:49 49.5333 -82.6000 323° Northwest 480 552 43,000  Level Toronto Center
09:50 49.5833 -82.7167 303° West 480 552 43,000  Level Montreal Center
09:51 49.7000 -82.8667 320° Northwest 480 552 43,000  Level Montreal Center
09:51 49.7167 -82.8667 360° North 480 552 43,000  Level Toronto Center
09:52 49.7833 -83.0000 308° West 480 552 43,000  Level Montreal Center
09:53 49.8833 -83.1500 316° Northwest 480 552 43,000  Level Montreal Center
09:54 49.9833 -83.2667 323° Northwest 470 541 43,000  Level Montreal Center
09:55 50.0833 -83.4167 316° Northwest 470 541 43,000  Level Montreal Center
09:56 50.1833 -83.5667 316° Northwest 470 541 43,000  Level Montreal Center
09:57 50.2833 -83.7167 316° Northwest 470 541 43,000  Level Montreal Center
09:58 50.3833 -83.8333 323° Northwest 470 541 43,000  Level Montreal Center
09:59 50.4667 -83.9833 311° West 470 541 43,000  Level Montreal Center
10:00 50.5667 -84.1333 316° Northwest 480 552 43,000  Level Montreal Center
10:01 50.6667 -84.2833 316° Northwest 480 552 43,000  Level Montreal Center
10:02 50.7000 -84.2833 360° North 480 552 43,000  Level Edmonton Center
10:03 50.8000 -84.4333 317° Northwest 470 541 43,000  Level Edmonton Center
10:04 50.9000 -84.5833 317° Northwest 470 541 43,000  Level Edmonton Center
10:05 51.0000 -84.7333 317° Northwest 470 541 43,000  Level Edmonton Center
10:06 51.0833 -84.8500 319° Northwest 470 541 43,000  Level Edmonton Center
10:07 51.1833 -85.0000 317° Northwest 470 541 43,000  Level Edmonton Center
10:08 51.2667 -85.1500 312° West 470 541 43,000  Level Edmonton Center
10:09 51.3500 -85.2833 315° West 470 541 43,000  Level Edmonton Center
10:10 51.4500 -85.4333 317° Northwest 460 529 43,000  Level Edmonton Center
10:11 51.5500 -85.5833 317° Northwest 460 529 43,000  Level Edmonton Center
10:12 51.6333 -85.7167 315° West 460 529 43,000  Level Edmonton Center
10:13 51.7167 -85.8667 312° West 460 529 43,000  Level Edmonton Center
10:14 51.8167 -86.0167 317° Northwest 460 529 43,000  Level Edmonton Center
10:15 51.9167 -86.1667 317° Northwest 460 529 43,000  Level Edmonton Center
10:16 52.0000 -86.3000 315° West 460 529 43,000  Level Edmonton Center
10:17 52.1000 -86.4500 317° Northwest 460 529 43,000  Level Edmonton Center
10:18 52.1833 -86.5833 316° Northwest 460 529 43,000  Level Edmonton Center
10:19 52.2667 -86.7333 312° West 450 518 43,000  Level Edmonton Center
10:20 52.3667 -86.8667 321° Northwest 450 518 43,000  Level Edmonton Center
10:21 52.4667 -87.0333 315° West 450 518 43,000  Level Edmonton Center
10:22 52.5333 -87.2000 303° West 450 518 43,000  Level Edmonton Center
10:23 52.6333 -87.3333 321° Northwest 450 518 43,000  Level Edmonton Center
10:24 52.7000 -87.5000 303° West 450 518 43,000  Level Edmonton Center
10:25 52.8000 -87.6167 325° Northwest 450 518 43,000  Level Edmonton Center
10:26 52.9000 -87.7833 315° West 450 518 43,000  Level Edmonton Center
10:27 52.9667 -87.9500 304° West 450 518 43,000  Level Edmonton Center
10:28 53.0667 -88.0833 321° Northwest 450 518 43,000  Level Edmonton Center
10:29 53.1500 -88.2500 310° West 450 518 43,000  Level Edmonton Center
10:30 53.2333 -88.4000 313° West 440 506 43,000  Level Edmonton Center
10:31 53.3167 -88.5667 310° West 450 518 43,000  Level Edmonton Center
10:32 53.4167 -88.7000 322° Northwest 450 518 43,000  Level Edmonton Center
10:33 53.4833 -88.8667 304° West 440 506 43,000  Level Edmonton Center
10:34 53.5833 -89.0000 322° Northwest 440 506 43,000  Level Edmonton Center
10:35 53.6500 -89.1500 307° West 440 506 43,000  Level Edmonton Center
10:36 53.7333 -89.3167 310° West 440 506 43,000  Level Edmonton Center
10:37 53.8333 -89.4667 319° Northwest 440 506 43,000  Level Edmonton Center
10:38 53.9000 -89.6167 307° West 430 495 43,000  Level Edmonton Center
10:39 54.0000 -89.7833 316° Northwest 430 495 43,000  Level Edmonton Center
10:40 54.0667 -89.9333 307° West 440 506 43,000  Level Edmonton Center
10:41 54.1500 -90.0667 317° Northwest 430 495 43,000  Level Edmonton Center
10:42 54.2167 -90.2167 307° West 430 495 43,000  Level Edmonton Center
10:43 54.3167 -90.4000 313° West 440 506 43,000  Level Edmonton Center
10:44 54.3833 -90.5500 307° West 430 495 43,000  Level Edmonton Center
10:45 54.4833 -90.7167 316° Northwest 430 495 43,000  Level Edmonton Center
10:46 54.5500 -90.8667 308° West 430 495 43,000  Level Edmonton Center
10:47 54.6333 -91.0167 314° West 440 506 43,000  Level Edmonton Center
10:48 54.7000 -91.1667 308° West 430 495 43,000  Level Edmonton Center
10:49 54.8000 -91.3500 313° West 430 495 43,000  Level Edmonton Center
10:50 54.8667 -91.5000 308° West 430 495 43,000  Level Edmonton Center
10:51 54.9500 -91.6500 314° West 430 495 43,000  Level Edmonton Center
10:52 55.0167 -91.8000 308° West 430 495 43,000  Level Edmonton Center
10:53 55.1000 -91.9833 309° West 430 495 43,000  Level Edmonton Center
10:54 55.1833 -92.1500 311° West 430 495 43,000  Level Edmonton Center
10:55 55.2667 -92.3000 314° West 430 495 43,000  Level Edmonton Center
10:56 55.3500 -92.4500 314° West 430 495 43,000  Level Edmonton Center
10:57 55.4167 -92.6167 305° West 430 495 43,000  Level Edmonton Center
10:58 55.4833 -92.8000 303° West 430 495 43,000  Level Edmonton Center
10:59 55.5667 -92.9500 315° West 430 495 43,000  Level Edmonton Center
11:00 55.6333 -93.1167 305° West 430 495 43,000  Level Edmonton Center
11:01 55.7167 -93.2667 315° West 420 483 43,000  Level Edmonton Center
11:02 55.7833 -93.4333 305° West 420 483 43,000  Level Edmonton Center
11:03 55.8833 -93.6167 314° West 420 483 43,000  Level Edmonton Center
11:04 55.9333 -93.7500 304° West 420 483 43,000  Level Edmonton Center
11:05 56.0333 -93.9333 314° West 420 483 43,000  Level Edmonton Center
11:06 56.1000 -94.1000 306° West 420 483 43,000  Level Edmonton Center
11:07 56.1833 -94.2667 312° West 420 483 43,000  Level Edmonton Center
11:08 56.2500 -94.4333 306° West 420 483 43,000  Level Edmonton Center
11:09 56.3000 -94.6000 298° West 420 483 43,000  Level Edmonton Center
11:10 56.3833 -94.7667 312° West 420 483 43,000  Level Edmonton Center
11:11 56.4500 -94.9333 306° West 420 483 43,000  Level Edmonton Center
11:12 56.5333 -95.1000 312° West 420 483 43,000  Level Edmonton Center
11:13 56.6000 -95.2667 306° West 420 483 43,000  Level Edmonton Center
11:14 56.6833 -95.4333 312° West 420 483 43,000  Level Edmonton Center
11:15 56.7667 -95.6000 312° West 410 472 43,000  Level Edmonton Center
11:16 56.8333 -95.7667 306° West 410 472 43,000  Level Edmonton Center
11:17 56.9167 -95.9333 313° West 410 472 43,000  Level Edmonton Center
11:18 56.9667 -96.1000 299° West 410 472 43,000  Level Edmonton Center
11:19 57.0500 -96.2333 319° Northwest 410 472 43,000  Level Edmonton Center
11:20 57.1167 -96.4167 304° West 410 472 43,000  Level Edmonton Center
11:21 57.2000 -96.5833 313° West 420 483 43,000  Level Edmonton Center
11:22 57.2667 -96.7667 304° West 410 472 43,000  Level Edmonton Center
11:23 57.3333 -96.9333 307° West 410 472 43,000  Level Edmonton Center
11:24 57.4000 -97.1000 307° West 410 472 43,000  Level Edmonton Center
11:25 57.4833 -97.2833 310° West 410 472 43,000  Level Edmonton Center
11:26 57.5500 -97.4500 307° West 410 472 43,000  Level Edmonton Center
11:27 57.6167 -97.6333 304° West 410 472 43,000  Level Edmonton Center
11:28 57.6833 -97.8167 304° West 410 472 43,000  Level Edmonton Center
11:29 57.7667 -97.9833 313° West 410 472 43,000  Level Edmonton Center
11:30 57.8167 -98.1667 297° West 420 483 43,000  Level Edmonton Center
11:31 57.9000 -98.3500 311° West 410 472 43,000  Level Edmonton Center
11:32 57.9500 -98.5000 302° West 410 472 43,000  Level Edmonton Center
11:33 58.0333 -98.6667 313° West 410 472 43,000  Level Edmonton Center
11:34 58.1000 -98.8500 305° West 410 472 43,000  Level Edmonton Center
11:35 58.1667 -99.0333 305° West 410 472 43,000  Level Edmonton Center
11:36 58.2333 -99.2167 305° West 410 472 43,000  Level Edmonton Center
11:37 58.3000 -99.4000 305° West 410 472 43,000  Level Edmonton Center
11:38 58.3667 -99.5833 305° West 410 472 43,000  Level Edmonton Center
11:39 58.4500 -99.7667 311° West 410 472 43,000  Level Edmonton Center
11:40 58.5167 -99.9500 305° West 420 483 43,000  Level Edmonton Center
11:41 58.5833 -100.1000 310° West 410 472 43,000  Level Edmonton Center
11:42 58.6500 -100.3000 303° West 410 472 43,000  Level Edmonton Center
11:43 58.7000 -100.4833 298° West 410 472 43,000  Level Edmonton Center
11:44 58.7833 -100.6667 311° West 410 472 43,000  Level Edmonton Center
11:45 58.8333 -100.8500 298° West 410 472 43,000  Level Edmonton Center
11:46 58.9167 -101.0500 309° West 410 472 43,000  Level Edmonton Center
11:47 58.9667 -101.2333 298° West 420 483 43,000  Level Edmonton Center
11:48 59.0500 -101.4333 309° West 410 472 43,000  Level Edmonton Center
11:49 59.1000 -101.6167 298° West 410 472 43,000  Level Edmonton Center
11:50 59.1667 -101.8167 303° West 410 472 43,000  Level Edmonton Center
11:51 59.2333 -102.0000 305° West 410 472 43,000  Level Edmonton Center
11:52 59.3000 -102.1667 308° West 410 472 43,000  Level Edmonton Center
11:53 59.3500 -102.3667 296° West 410 472 43,000  Level Edmonton Center
11:54 59.4333 -102.5500 312° West 410 472 43,000  Level Edmonton Center
11:55 59.4833 -102.7500 296° West 410 472 43,000  Level Edmonton Center
11:56 59.5500 -102.9500 303° West 410 472 43,000  Level Edmonton Center
11:57 59.6000 -103.1500 296° West 410 472 43,000  Level Edmonton Center
11:58 59.6833 -103.3167 315° West 410 472 43,000  Level Edmonton Center
11:59 59.7333 -103.5167 296° West 410 472 43,000  Level Edmonton Center
12:00 59.8000 -103.7167 304° West 410 472 43,000  Level Edmonton Center
12:01 59.8500 -103.9167 297° West 410 472 43,000  Level Edmonton Center
12:02 59.9167 -104.1167 304° West 410 472 43,000  Level Edmonton Center
12:03 59.9667 -104.3167 297° West 420 483 43,000  Level Edmonton Center
12:04 60.0500 -104.5167 310° West 420 483 43,000  Level Edmonton Center
12:05 60.1000 -104.7167 297° West 410 472 43,000  Level Edmonton Center
12:06 60.1667 -104.9167 304° West 410 472 43,000  Level Edmonton Center
12:07 60.2167 -105.1333 295° West 410 472 43,000  Level Edmonton Center
12:08 60.2833 -105.3333 304° West 410 472 43,000  Level Edmonton Center
12:09 60.3333 -105.5333 297° West 410 472 43,000  Level Edmonton Center
12:10 60.4000 -105.7167 306° West 410 472 43,000  Level Edmonton Center
12:11 60.4500 -105.9167 297° West 410 472 43,000  Level Edmonton Center
12:12 60.5167 -106.1667 299° West 410 472 43,000  Level Edmonton Center
12:13 60.5667 -106.3667 297° West 410 472 43,000  Level Edmonton Center
12:14 60.6333 -106.5833 302° West 410 472 43,000  Level Edmonton Center
12:15 60.6833 -106.7667 299° West 420 483 43,000  Level Edmonton Center
12:16 60.7333 -106.9667 297° West 420 483 43,000  Level Edmonton Center
12:17 60.8000 -107.1833 302° West 420 483 43,000  Level Edmonton Center
12:18 60.8500 -107.4000 295° West 420 483 43,000  Level Edmonton Center
12:19 60.9167 -107.6167 302° West 410 472 43,000  Level Edmonton Center
12:20 60.9667 -107.8167 297° West 420 483 43,000  Level Edmonton Center
12:21 61.0333 -108.0333 302° West 420 483 43,000  Level Edmonton Center
12:22 61.0667 -108.2500 288° West 420 483 43,000  Level Edmonton Center
12:23 61.1333 -108.4667 303° West 420 483 43,000  Level Edmonton Center
12:24 61.1833 -108.6833 296° West 420 483 43,000  Level Edmonton Center
12:25 61.2500 -108.9167 301° West 420 483 43,000  Level Edmonton Center
12:26 61.3000 -109.1333 296° West 420 483 43,000  Level Edmonton Center
12:27 61.3500 -109.3500 296° West 420 483 43,000  Level Edmonton Center
12:28 61.4167 -109.5667 303° West 420 483 43,000  Level Edmonton Center
12:29 61.4500 -109.7833 288° West 420 483 43,000  Level Edmonton Center
12:30 61.5167 -110.0167 301° West 420 483 43,000  Level Edmonton Center
12:31 61.5667 -110.2333 296° West 420 483 43,000  Level Edmonton Center
12:32 61.6167 -110.4500 296° West 420 483 43,000  Level Edmonton Center
12:33 61.6667 -110.6833 294° West 420 483 43,000  Level Edmonton Center
12:34 61.7167 -110.9000 296° West 420 483 43,000  Level Edmonton Center
12:35 61.7667 -111.1333 294° West 420 483 43,000  Level Edmonton Center
12:36 61.8167 -111.3500 296° West 420 483 43,000  Level Edmonton Center
12:37 61.8667 -111.5833 295° West 420 483 43,000  Level Edmonton Center
12:38 61.9333 -111.8167 301° West 420 483 43,000  Level Edmonton Center
12:39 61.9667 -112.0500 287° West 420 483 43,000  Level Edmonton Center
12:40 62.0167 -112.2667 296° West 430 495 43,000  Level Edmonton Center
12:41 62.0833 -112.5500 297° West 430 495 43,000  Level Edmonton Center
12:42 62.1167 -112.7667 288° West 430 495 43,000  Level Edmonton Center
12:43 62.1667 -113.0000 295° West 430 495 43,000  Level Edmonton Center
12:44 62.2333 -113.2333 302° West 430 495 43,000  Level Edmonton Center
12:45 62.2667 -113.4667 287° West 430 495 43,000  Level Edmonton Center
12:46 62.3167 -113.7000 295° West 430 495 43,000  Level Edmonton Center
12:47 62.3500 -113.9333 287° West 430 495 43,000  Level Edmonton Center
12:48 62.4000 -114.1667 295° West 430 495 43,000  Level Edmonton Center
12:49 62.4500 -114.4500 291° West 440 506 43,000  Level Edmonton Center
12:50 62.5000 -114.8000 287° West 440 506 43,000  Level Edmonton Center
12:51 62.5333 -115.0667 285° West 440 506 43,000  Level Edmonton Center
12:52 62.5500 -115.3000 279° West 440 506 43,000  Level Edmonton Center
12:53 62.5833 -115.5667 285° West 430 495 43,000  Level Edmonton Center
12:54 62.6167 -115.8333 285° West 430 495 43,000  Level Edmonton Center
12:55 62.6333 -116.0667 279° West 430 495 43,000  Level Edmonton Center
12:56 62.6667 -116.3500 284° West 430 495 43,000  Level Edmonton Center
12:57 62.7000 -116.5833 287° West 430 495 43,000  Level Edmonton Center
12:58 62.7167 -116.8500 278° West 430 495 43,000  Level Edmonton Center
12:59 62.7333 -117.1167 278° West 440 506 43,000  Level Edmonton Center
13:00 62.7667 -117.4000 285° West 440 506 43,000 300 Level Edmonton Center
13:01 62.7833 -117.6667 278° West 440 506 43,600 600 Climbing Edmonton Center
13:02 62.8167 -117.9500 285° West 450 518 44,200 600 Climbing Edmonton Center
13:03 62.8333 -118.2167 278° West 450 518 44,800 660 Climbing Edmonton Center
13:04 62.8500 -118.4500 279° West 450 518 45,600 600 Climbing Edmonton Center
13:05 62.8833 -118.7333 285° West 440 506 46,100 360 Climbing Edmonton Center
13:06 62.9000 -119.0167 277° West 450 518 46,400 300 Climbing Edmonton Center
13:07 62.9333 -119.2833 285° West 450 518 46,800 300 Climbing Edmonton Center
13:08 62.9333 -119.5500 270° West 450 518 47,000 60 Climbing Edmonton Center
13:09 62.9500 -119.8333 277° West 450 518 47,000  Level Edmonton Center
13:10 62.9833 -120.1167 285° West 460 529 47,000  Level Edmonton Center
13:11 63.0000 -120.4000 278° West 460 529 47,000  Level Edmonton Center
13:12 63.0167 -120.6667 278° West 460 529 47,000  Level Edmonton Center
13:13 63.0500 -120.9500 285° West 460 529 47,000  Level Edmonton Center
13:14 63.0667 -121.2333 278° West 460 529 47,000  Level Edmonton Center
13:15 63.0833 -121.5167 278° West 460 529 47,000  Level Edmonton Center
13:16 63.1000 -121.8000 278° West 460 529 47,000  Level Edmonton Center
13:17 63.1167 -122.0833 278° West 460 529 47,000  Level Edmonton Center
13:18 63.1167 -122.3500 270° West 460 529 47,000  Level Edmonton Center
13:19 63.1333 -122.6333 278° West 460 529 47,000  Level Edmonton Center
13:20 63.1500 -122.9500 277° West 460 529 47,000  Level Edmonton Center
13:21 63.1667 -123.2000 279° West 460 529 47,000  Level Edmonton Center
13:22 63.1833 -123.4833 278° West 460 529 47,000  Level Edmonton Center
13:23 63.2000 -123.8000 277° West 460 529 47,000  Level Edmonton Center
13:25 63.2157 -124.1276 276° West  Level FlightAware Approximate
13:32 63.2914 -126.0190 276° West  Level FlightAware Approximate
13:33 63.3002 -126.2900 274° West  Level FlightAware Approximate
13:34 63.3085 -126.5611 274° West  Level FlightAware Approximate
13:35 63.3162 -126.8323 274° West  Level FlightAware Approximate
13:36 63.3234 -127.1037 274° West  Level FlightAware Approximate
13:37 63.3301 -127.3753 273° West  Level FlightAware Approximate
13:38 63.3363 -127.6469 273° West  Level FlightAware Approximate
13:39 63.3420 -127.9187 273° West  Level FlightAware Approximate
13:40 63.3471 -128.1905 273° West  Level FlightAware Approximate
13:41 63.3518 -128.4625 272° West  Level FlightAware Approximate
13:42 63.3559 -128.7345 272° West  Level FlightAware Approximate
13:43 63.3595 -129.0067 272° West  Level FlightAware Approximate
13:44 63.3626 -129.2788 272° West  Level FlightAware Approximate
13:45 63.3651 -129.5511 271° West  Level FlightAware Approximate
13:46 63.3672 -129.8233 271° West  Level FlightAware Approximate
13:47 63.3687 -130.0957 271° West  Level FlightAware Approximate
13:48 63.3697 -130.3680 271° West  Level FlightAware Approximate
13:49 63.3702 -130.6403 270° West  Level FlightAware Approximate
13:50 63.3702 -130.9127 270° West  Level FlightAware Approximate
13:51 63.3696 -131.1843 270° West  Level FlightAware Approximate
13:52 63.3686 -131.4559 270° West  Level FlightAware Approximate
13:53 63.3670 -131.7274 269° West  Level FlightAware Approximate
13:54 63.3649 -131.9989 269° West  Level FlightAware Approximate
13:55 63.3623 -132.2704 269° West  Level FlightAware Approximate
13:56 63.3592 -132.5419 269° West  Level FlightAware Approximate
13:57 63.3555 -132.8132 268° West  Level FlightAware Approximate
13:58 63.3514 -133.0845 268° West  Level FlightAware Approximate
13:59 63.3467 -133.3557 268° West  Level FlightAware Approximate
14:00 63.3415 -133.6268 268° West  Level FlightAware Approximate
14:01 63.3358 -133.8978 267° West  Level FlightAware Approximate
14:02 63.3296 -134.1687 267° West  Level FlightAware Approximate
14:03 63.3229 -134.4395 267° West  Level FlightAware Approximate
14:04 63.3157 -134.7101 267° West  Level FlightAware Approximate
14:05 63.3079 -134.9807 266° West  Level FlightAware Approximate
14:06 63.2997 -135.2510 266° West  Level FlightAware Approximate
14:07 63.2909 -135.5212 266° West  Level FlightAware Approximate
14:08 63.2816 -135.7912 266° West  Level FlightAware Approximate
14:09 63.2718 -136.0611 266° West  Level FlightAware Approximate
14:10 63.2615 -136.3307 265° West  Level FlightAware Approximate
14:11 63.2507 -136.6002 265° West  Level FlightAware Approximate
14:12 63.2393 -136.8694 265° West  Level FlightAware Approximate
14:13 63.2275 -137.1385 265° West  Level FlightAware Approximate
14:14 63.2152 -137.4073 264° West  Level FlightAware Approximate
14:15 63.2023 -137.6759 264° West  Level FlightAware Approximate
14:16 63.1890 -137.9442 264° West  Level FlightAware Approximate
14:17 63.1751 -138.2123 264° West  Level FlightAware Approximate
14:18 63.1608 -138.4801 263° West  Level FlightAware Approximate
14:19 63.1459 -138.7477 263° West  Level FlightAware Approximate
14:20 63.1305 -139.0149 263° West  Level FlightAware Approximate
14:20 63.0333 -140.2500 262° West 800 921 47,000  Level Anchorage Center
14:21 63.1147 -139.2819 263° West  Level FlightAware Approximate
14:21 63.0333 -140.5167 270° West 580 667 47,000  Level Anchorage Center
14:22 63.0983 -139.5486 262° West  Level FlightAware Approximate
14:22 63.0167 -140.7833 262° West 490 564 47,000  Level Anchorage Center
14:23 63.0814 -139.8150 262° West  Level FlightAware Approximate
14:23 63.0000 -141.0667 263° West 480 552 47,000  Level Anchorage Center
14:24 63.0640 -140.0811 262° West  Level FlightAware Approximate
14:24 62.9833 -141.3500 263° West 470 541 47,000  Level Anchorage Center
14:25 63.0462 -140.3468 262° West  Level FlightAware Approximate
14:25 62.9667 -141.6333 263° West 480 552 47,000  Level Anchorage Center
14:26 62.9333 -141.9167 256° West 470 541 47,000  Level Anchorage Center
14:27 62.9000 -142.1833 255° West 450 518 47,000  Level Anchorage Center
14:28 62.8667 -142.4667 256° West 460 529 47,000  Level Anchorage Center
14:29 62.8167 -142.7500 249° West 480 552 47,000  Level Anchorage Center
14:30 62.7833 -143.0167 255° West 470 541 47,000  Level Anchorage Center
14:31 62.7500 -143.2833 255° West 480 552 47,000  Level Anchorage Center
14:32 62.7000 -143.5667 249° West 480 552 47,000  Level Anchorage Center
14:33 62.6667 -143.8333 255° West 470 541 47,000  Level Anchorage Center
14:34 62.6167 -144.1000 248° West 470 541 47,000  Level Anchorage Center
14:35 62.5833 -144.3833 256° West 470 541 47,000  Level Anchorage Center
14:36 62.5333 -144.6500 248° West 470 541 47,000  Level Anchorage Center
14:37 62.4833 -144.9167 248° West 480 552 47,000  Level Anchorage Center
14:38 62.4500 -145.2000 256° West 480 552 47,000 -600 Level Anchorage Center
14:39 62.4000 -145.4667 248° West 480 552 45,900 -1,680 Descending Anchorage Center
14:40 62.3667 -145.7167 254° West 460 529 43,700 -2,040 Descending Anchorage Center
14:41 62.3167 -145.9833 248° West 460 529 41,800 -1,860 Descending Anchorage Center
14:42 62.2667 -146.2500 248° West 470 541 40,000 -1,860 Descending Anchorage Center
14:43 62.2167 -146.5167 248° West 470 541 38,100 -1,920 Descending Anchorage Center
14:44 62.1833 -146.7667 254° West 460 529 36,200 -1,920 Descending Anchorage Center
14:45 62.1333 -147.0000 245° Southwest 470 541 34,300 -1,860 Descending Anchorage Center
14:46 62.0833 -147.2500 247° West 460 529 32,500 -1,860 Descending Anchorage Center
14:47 62.0333 -147.5667 252° West 470 541 30,600 -1,860 Descending Anchorage Center
14:48 61.9833 -147.8000 246° West 440 506 28,800 -1,800 Descending Anchorage Center
14:49 61.9500 -148.0500 254° West 430 495 27,100 -1,680 Descending Anchorage Center
14:50 61.9000 -148.2667 244° Southwest 410 472 25,500 -1,680 Descending Anchorage Center
14:51 61.8500 -148.5000 246° West 400 460 23,800 -1,680 Descending Anchorage Center
14:52 61.8167 -148.7000 251° West 390 449 22,200 -1,620 Descending Anchorage Center
14:54 61.7480 -149.0331 247° West  Level FlightAware Approximate
15:01 61.1895 -149.9833 180° South  Level FlightAware Approximate
15:02 61.1667 -149.9833 180° South  Level FlightAware Approximate
15:03 61.1741 -149.9982 180° South  Level Estimated
15:04 61.1741 -149.9982 180° South  Level Estimated
15:05 61.1741 -149.9982 180° South  Level Estimated
15:06 61.1741 -149.9982 180° South  Level Estimated
15:07 61.1741 -149.9982 180° South  Level Estimated
15:08 61.1741 -149.9982 180° South  Level Estimated
15:09 61.1741 -149.9982 180° South  Level Estimated
15:10 61.1741 -149.9982 180° South  Level Estimated
15:11 61.1741 -149.9982 180° South  Level Estimated
15:12 61.1741 -149.9982 180° South  Level Estimated
15:13 61.1741 -149.9982 180° South  Level Estimated
15:14 61.1741 -149.9982 180° South  Level Estimated
15:15 61.1741 -149.9982 180° South  Level Estimated
15:16 61.1741 -149.9982 180° South  Level Estimated
15:17 61.1741 -149.9982 180° South  Level Estimated
15:18 61.1741 -149.9982 180° South  Level Estimated
15:19 61.1741 -149.9982 180° South  Level Estimated
15:20 61.1741 -149.9982 180° South  Level Estimated
15:21 61.1741 -149.9982 180° South  Level Estimated